EW0408 Weather Reports


Display with metric or nautical units.
time (UTC)temp
F
wind
direction
speed
MPH
gust
MPH
rain 1hr
in
rain 24hr
in
rain mn
in
humidity
%
barometer
mb
20260504190004 79 50 14.0 19.0 0.00 0.00 0.00 65 1015.4
20260504185004 79 56 9.0 19.0 0.00 0.00 0.00 66 1015.4
20260504184004 79 63 6.0 14.0 0.00 0.00 0.00 66 1015.5
20260504183026 79 51 11.0 18.0 0.00 0.00 0.00 65 1015.8
20260504182004 80 49 9.0 14.0 0.00 0.00 0.00 66 1015.7
20260504181025 79 50 11.0 17.0 0.00 0.00 0.00 66 1016.0
20260504180004 79 56 10.0 19.0 0.00 0.00 0.00 66 1016.0
20260504175005 79 53 10.0 16.0 0.00 0.00 0.00 66 1016.1
20260504174004 79 56 10.0 17.0 0.00 0.00 0.00 66 1016.2
20260504173025 79 54 10.0 18.0 0.00 0.00 0.00 66 1016.3
20260504172005 79 48 11.0 17.0 0.00 0.00 0.00 67 1016.2
20260504171005 79 53 12.0 18.0 0.00 0.00 0.00 66 1016.3
20260504151004 77 48 11.0 18.0 0.00 0.00 0.00 66 1017.1
20260504141025 76 40 11.0 21.0 0.00 0.00 0.00 64 1016.8
20260504082004 69 18 6.0 12.0 0.00 0.35 0.00 82 1015.4
20260504081005 69 5 5.0 10.0 0.00 0.41 0.00 81 1015.5
20260504050025 70 34 5.0 9.0 0.00 0.72 0.00 81 1016.4
20260504045004 70 42 5.0 9.0 0.00 0.72 0.00 81 1016.4
20260504044005 70 32 4.0 9.0 0.00 0.72 0.00 81 1016.6
20260504043004 70 38 4.0 10.0 0.00 0.72 0.00 81 1016.7
20260504042004 70 0 0.0 0.0 0.00 0.72 0.00 82 1016.6
20260504041004 70 0 0.0 0.0 0.00 0.72 0.00 82 1016.9
20260504040004 70 0 0.0 0.0 0.00 0.72 0.00 82 1017.1
20260504035004 70 0 0.0 0.0 0.00 0.72 0.72 81 1016.9
20260504034004 70 0 0.0 0.0 0.00 0.72 0.72 81 1017.0
20260504033004 70 0 0.0 0.0 0.00 0.72 0.72 81 1016.9
20260504032025 70 0 0.0 0.0 0.00 0.72 0.72 81 1017.0
20260504031004 70 0 0.0 0.0 0.00 0.72 0.72 81 1016.9
20260504030026 71 55 0.0 1.0 0.00 0.72 0.72 81 1016.9
20260504025004 71 0 0.0 0.0 0.00 0.72 0.72 81 1016.9
20260504024025 71 0 0.0 0.0 0.00 0.72 0.72 81 1017.0
20260504023004 71 0 0.0 0.0 0.00 0.72 0.72 81 1016.8
20260504022004 71 0 0.0 0.0 0.00 0.72 0.72 80 1016.7
20260504021025 71 50 0.0 1.0 0.00 0.72 0.72 80 1016.6
20260504020004 71 0 0.0 0.0 0.00 0.75 0.72 80 1016.5
20260504015004 71 0 0.0 0.0 0.00 0.75 0.72 80 1016.7
20260504014004 71 0 0.0 0.0 0.00 0.75 0.72 79 1016.6
20260504013004 72 0 0.0 0.0 0.00 0.75 0.72 79 1016.4
20260504012004 72 0 0.0 0.0 0.00 0.75 0.72 80 1016.3
20260504011004 72 49 5.0 11.0 0.00 0.75 0.72 79 1016.2
20260504010004 72 44 6.0 9.0 0.00 0.76 0.72 79 1016.1
20260504005004 72 47 7.0 10.0 0.00 0.76 0.72 80 1016.1
20260504004004 72 50 4.0 8.0 0.00 0.76 0.72 79 1016.0
20260504003025 72 52 5.0 9.0 0.00 0.76 0.72 79 1015.9
20260504002004 73 54 3.0 8.0 0.00 0.76 0.72 78 1015.9
20260504001004 73 50 6.0 9.0 0.00 0.76 0.72 78 1015.7
20260504000025 73 50 7.0 11.0 0.00 0.76 0.72 78 1015.7
20260503235004 73 51 7.0 12.0 0.00 0.76 0.72 77 1015.7
20260503234004 73 54 8.0 15.0 0.00 0.76 0.72 77 1015.6
20260503233004 73 54 9.0 15.0 0.00 0.76 0.72 76 1015.7
20260503232004 73 53 9.0 14.0 0.00 0.76 0.72 77 1015.7
20260503231025 73 51 9.0 13.0 0.00 0.76 0.72 78 1015.7
20260503230004 73 49 9.0 12.0 0.00 0.76 0.72 77 1015.5
20260503225025 73 51 8.0 12.0 0.00 0.76 0.72 77 1015.6
20260503224004 73 49 8.0 12.0 0.00 0.77 0.72 77 1015.5
20260503223004 73 51 9.0 14.0 0.00 0.77 0.72 77 1015.5
20260503222003 74 52 9.0 15.0 0.00 0.83 0.72 77 1015.5
20260503221003 74 49 9.0 13.0 0.00 0.83 0.72 77 1015.5
20260503220005 74 50 9.0 14.0 0.00 0.83 0.72 76 1015.6
20260503215025 74 50 9.0 14.0 0.00 0.83 0.72 76 1015.6
20260503214004 74 53 8.0 11.0 0.00 0.83 0.72 78 1015.6
20260503213003 74 51 6.0 10.0 0.00 0.83 0.72 76 1015.4
20260503212003 74 53 8.0 13.0 0.00 0.83 0.72 76 1015.5
20260503211004 74 46 9.0 13.0 0.00 0.83 0.72 76 1015.6
20260503210004 74 47 9.0 15.0 0.00 0.83 0.72 77 1015.7
20260503205025 74 45 9.0 14.0 0.00 0.83 0.72 77 1015.6
20260503204025 73 48 10.0 15.0 0.00 0.83 0.72 77 1015.8
20260503203004 73 50 9.0 15.0 0.00 0.83 0.72 77 1015.7
20260503202003 74 48 10.0 14.0 0.00 0.83 0.72 77 1015.9
20260503201025 74 51 11.0 16.0 0.00 0.83 0.72 76 1016.0
20260503200025 73 49 9.0 16.0 0.00 0.83 0.72 77 1016.1
20260503195004 73 47 10.0 15.0 0.00 0.83 0.72 78 1016.2
20260503194004 72 47 10.0 14.0 0.00 0.83 0.72 78 1016.3
20260503193004 72 45 9.0 15.0 0.00 0.83 0.72 79 1016.4
20260503192004 72 46 9.0 13.0 0.00 0.83 0.72 79 1016.5
20260503191024 72 49 10.0 15.0 0.00 0.83 0.72 80 1016.7